Year,Month,Day,Hour,Minute,Value (Times are PST for temperature in C)
2008,06,17,00,00,14.20
2008,06,17,00,01,14.20
2008,06,17,00,02,14.20
2008,06,17,00,03,14.20
2008,06,17,00,04,14.10
2008,06,17,00,05,14.10
2008,06,17,00,06,14.10
2008,06,17,00,07,14.10
2008,06,17,00,08,14.00
2008,06,17,00,09,14.00
2008,06,17,00,10,14.00
2008,06,17,00,11,14.00
2008,06,17,00,12,13.90
2008,06,17,00,13,13.90
2008,06,17,00,14,13.90
2008,06,17,00,15,13.90
2008,06,17,00,16,13.90
2008,06,17,00,17,13.80
2008,06,17,00,18,13.80
2008,06,17,00,19,13.80
2008,06,17,00,20,13.80
2008,06,17,00,21,13.70
2008,06,17,00,22,13.70
2008,06,17,00,23,13.70
2008,06,17,00,24,13.70
2008,06,17,00,25,13.60
2008,06,17,00,26,13.60
2008,06,17,00,27,13.60
2008,06,17,00,28,13.60
2008,06,17,00,29,13.60
2008,06,17,00,30,13.60
2008,06,17,00,31,13.50
2008,06,17,00,32,13.60
2008,06,17,00,33,13.50
2008,06,17,00,34,13.50
2008,06,17,00,35,13.50
2008,06,17,00,36,13.50
2008,06,17,00,37,13.60
2008,06,17,00,38,13.60
2008,06,17,00,39,13.60
2008,06,17,00,40,13.60
2008,06,17,00,41,13.50
2008,06,17,00,42,13.50
2008,06,17,00,43,13.50
2008,06,17,00,44,13.40
2008,06,17,00,45,13.40
2008,06,17,00,46,13.40
2008,06,17,00,47,13.30
2008,06,17,00,48,13.30
2008,06,17,00,49,13.30
2008,06,17,00,50,13.20
2008,06,17,00,51,13.20
2008,06,17,00,52,13.20
2008,06,17,00,53,13.10
2008,06,17,00,54,13.10
2008,06,17,00,55,13.10
2008,06,17,00,56,13.10
2008,06,17,00,57,13.00
2008,06,17,00,58,13.00
2008,06,17,00,59,12.90
2008,06,17,01,00,12.90
2008,06,17,01,01,12.90
2008,06,17,01,02,12.80
2008,06,17,01,03,12.80
2008,06,17,01,04,12.80
2008,06,17,01,05,12.80
2008,06,17,01,06,12.70
2008,06,17,01,07,12.70
2008,06,17,01,08,12.70
2008,06,17,01,09,12.70
2008,06,17,01,10,12.60
2008,06,17,01,11,12.60
2008,06,17,01,12,12.60
2008,06,17,01,13,12.60
2008,06,17,01,14,12.60
2008,06,17,01,15,12.60
2008,06,17,01,16,12.60
2008,06,17,01,17,12.60
2008,06,17,01,18,12.60
2008,06,17,01,19,12.60
2008,06,17,01,20,12.50
2008,06,17,01,21,12.50
2008,06,17,01,22,12.50
2008,06,17,01,23,12.50
2008,06,17,01,24,12.40
2008,06,17,01,25,12.40
2008,06,17,01,26,12.40
2008,06,17,01,27,12.40
2008,06,17,01,28,12.30
2008,06,17,01,29,12.30
2008,06,17,01,30,12.30
2008,06,17,01,31,12.30
2008,06,17,01,32,12.20
2008,06,17,01,33,12.20
2008,06,17,01,34,12.10
2008,06,17,01,35,12.10
2008,06,17,01,36,12.00
2008,06,17,01,37,12.00
2008,06,17,01,38,12.00
2008,06,17,01,39,11.90
2008,06,17,01,40,11.90
2008,06,17,01,41,11.90
2008,06,17,01,42,11.80
2008,06,17,01,43,11.80
2008,06,17,01,44,11.70
2008,06,17,01,45,11.70
2008,06,17,01,46,11.70
2008,06,17,01,47,11.70
2008,06,17,01,48,11.70
2008,06,17,01,49,11.70
2008,06,17,01,50,11.60
2008,06,17,01,51,11.60
2008,06,17,01,52,11.60
2008,06,17,01,53,11.60
2008,06,17,01,54,11.60
2008,06,17,01,55,11.60
2008,06,17,01,56,11.60
2008,06,17,01,57,11.60
2008,06,17,01,58,11.60
2008,06,17,01,59,11.60
2008,06,17,02,00,11.60
2008,06,17,02,01,11.50
2008,06,17,02,02,11.50
2008,06,17,02,03,11.50
2008,06,17,02,04,11.50
2008,06,17,02,05,11.50
2008,06,17,02,06,11.50
2008,06,17,02,07,11.50
2008,06,17,02,08,11.50
2008,06,17,02,09,11.40
2008,06,17,02,10,11.40
2008,06,17,02,11,11.40
2008,06,17,02,12,11.30
2008,06,17,02,13,11.20
2008,06,17,02,14,11.10
2008,06,17,02,15,11.00
2008,06,17,02,16,11.00
2008,06,17,02,17,10.90
2008,06,17,02,18,10.80
2008,06,17,02,19,10.70
2008,06,17,02,20,10.70
2008,06,17,02,21,10.60
2008,06,17,02,22,10.60
2008,06,17,02,23,10.50
2008,06,17,02,24,10.40
2008,06,17,02,25,10.40
2008,06,17,02,26,10.30
2008,06,17,02,27,10.30
2008,06,17,02,28,10.20
2008,06,17,02,29,10.20
2008,06,17,02,30,10.10
2008,06,17,02,31,10.10
2008,06,17,02,32,10.10
2008,06,17,02,33,10.10
2008,06,17,02,34,10.00
2008,06,17,02,35,10.00
2008,06,17,02,36,9.90
2008,06,17,02,37,9.90
2008,06,17,02,38,9.90
2008,06,17,02,39,9.80
2008,06,17,02,40,9.80
2008,06,17,02,41,9.80
2008,06,17,02,42,9.70
2008,06,17,02,43,9.70
2008,06,17,02,44,9.60
2008,06,17,02,45,9.60
2008,06,17,02,46,9.60
2008,06,17,02,47,9.60
2008,06,17,02,48,9.50
2008,06,17,02,49,9.50
2008,06,17,02,50,9.40
2008,06,17,02,51,9.30
2008,06,17,02,52,9.30
2008,06,17,02,53,9.30
2008,06,17,02,54,9.20
2008,06,17,02,55,9.20
2008,06,17,02,56,9.20
2008,06,17,02,57,9.20
2008,06,17,02,58,9.20
2008,06,17,02,59,9.20
2008,06,17,03,00,9.10
2008,06,17,03,01,9.10
2008,06,17,03,02,9.10
2008,06,17,03,03,9.10
2008,06,17,03,04,9.10
2008,06,17,03,05,9.00
2008,06,17,03,06,9.00
2008,06,17,03,07,9.00
2008,06,17,03,08,8.90
2008,06,17,03,09,8.90
2008,06,17,03,10,8.90
2008,06,17,03,11,8.90
2008,06,17,03,12,8.90
2008,06,17,03,13,8.90
2008,06,17,03,14,8.90
2008,06,17,03,15,8.90
2008,06,17,03,16,8.80
2008,06,17,03,17,8.80
2008,06,17,03,18,8.80
2008,06,17,03,19,8.80
2008,06,17,03,20,8.70
2008,06,17,03,21,8.70
2008,06,17,03,22,8.70
2008,06,17,03,23,8.70
2008,06,17,03,24,8.70
2008,06,17,03,25,8.70
2008,06,17,03,26,8.60
2008,06,17,03,27,8.60
2008,06,17,03,28,8.60
2008,06,17,03,29,8.60
2008,06,17,03,30,8.60
2008,06,17,03,31,8.50
2008,06,17,03,32,8.50
2008,06,17,03,33,8.40
2008,06,17,03,34,8.40
2008,06,17,03,35,8.40
2008,06,17,03,36,8.40
2008,06,17,03,37,8.40
2008,06,17,03,38,8.30
2008,06,17,03,39,8.30
2008,06,17,03,40,8.30
2008,06,17,03,41,8.30
2008,06,17,03,42,8.30
2008,06,17,03,43,8.30
2008,06,17,03,44,8.30
2008,06,17,03,45,8.30
2008,06,17,03,46,8.30
2008,06,17,03,47,8.30
2008,06,17,03,48,8.30
2008,06,17,03,49,8.30
2008,06,17,03,50,8.30
2008,06,17,03,51,8.30
2008,06,17,03,52,8.30
2008,06,17,03,53,8.30
2008,06,17,03,54,8.30
2008,06,17,03,55,8.30
2008,06,17,03,56,8.30
2008,06,17,03,57,8.30
2008,06,17,03,58,8.30
2008,06,17,03,59,8.30
2008,06,17,04,00,8.40
2008,06,17,04,01,8.40
2008,06,17,04,02,8.40
2008,06,17,04,03,8.50
2008,06,17,04,04,8.60
2008,06,17,04,05,8.60
2008,06,17,04,06,8.60
2008,06,17,04,07,8.60
2008,06,17,04,08,8.60
2008,06,17,04,09,8.60
2008,06,17,04,10,8.60
2008,06,17,04,11,8.60
2008,06,17,04,12,8.50
2008,06,17,04,13,8.50
2008,06,17,04,14,8.50
2008,06,17,04,15,8.50
2008,06,17,04,16,8.50
2008,06,17,04,17,8.40
2008,06,17,04,18,8.40
2008,06,17,04,19,8.40
2008,06,17,04,20,8.40
2008,06,17,04,21,8.40
2008,06,17,04,22,8.30
2008,06,17,04,23,8.30
2008,06,17,04,24,8.30
2008,06,17,04,25,8.30
2008,06,17,04,26,8.30
2008,06,17,04,27,8.30
2008,06,17,04,28,8.30
2008,06,17,04,29,8.30
2008,06,17,04,30,8.30
2008,06,17,04,31,8.30
2008,06,17,04,32,8.30
2008,06,17,04,33,8.30
2008,06,17,04,34,8.30
2008,06,17,04,35,8.20
2008,06,17,04,36,8.20
2008,06,17,04,37,8.20
2008,06,17,04,38,8.20
2008,06,17,04,39,8.20
2008,06,17,04,40,8.20
2008,06,17,04,41,8.20
2008,06,17,04,42,8.20
2008,06,17,04,43,8.20
2008,06,17,04,44,8.20
2008,06,17,04,45,8.10
2008,06,17,04,46,8.10
2008,06,17,04,47,8.10
2008,06,17,04,48,8.10
2008,06,17,04,49,8.10
2008,06,17,04,50,8.10
2008,06,17,04,51,8.20
2008,06,17,04,52,8.20
2008,06,17,04,53,8.20
2008,06,17,04,54,8.20
2008,06,17,04,55,8.20
2008,06,17,04,56,8.20
2008,06,17,04,57,8.30
2008,06,17,04,58,8.30
2008,06,17,04,59,8.30
2008,06,17,05,00,8.30
2008,06,17,05,01,8.30
2008,06,17,05,02,8.30
2008,06,17,05,03,8.30
2008,06,17,05,04,8.30
2008,06,17,05,05,8.30
2008,06,17,05,06,8.30
2008,06,17,05,07,8.30
2008,06,17,05,08,8.30
2008,06,17,05,09,8.30
2008,06,17,05,10,8.30
2008,06,17,05,11,8.30
2008,06,17,05,12,8.40
2008,06,17,05,13,8.40
2008,06,17,05,14,8.40
2008,06,17,05,15,8.40
2008,06,17,05,16,8.40
2008,06,17,05,17,8.40
2008,06,17,05,18,8.40
2008,06,17,05,19,8.40
2008,06,17,05,20,8.50
2008,06,17,05,21,8.50
2008,06,17,05,22,8.50
2008,06,17,05,23,8.60
2008,06,17,05,24,8.60
2008,06,17,05,25,8.60
2008,06,17,05,26,8.60
2008,06,17,05,27,8.60
2008,06,17,05,28,8.60
2008,06,17,05,29,8.60
2008,06,17,05,30,8.60
2008,06,17,05,31,8.60
2008,06,17,05,32,8.70
2008,06,17,05,33,8.80
2008,06,17,05,34,8.80
2008,06,17,05,35,8.90
2008,06,17,05,36,9.10
2008,06,17,05,37,9.20
2008,06,17,05,38,9.30
2008,06,17,05,39,9.30
2008,06,17,05,40,9.30
2008,06,17,05,41,9.30
2008,06,17,05,42,9.30
2008,06,17,05,43,9.30
2008,06,17,05,44,9.30
2008,06,17,05,45,9.30
2008,06,17,05,46,9.30
2008,06,17,05,47,9.30
2008,06,17,05,48,9.30
2008,06,17,05,49,9.40
2008,06,17,05,50,9.40
2008,06,17,05,51,9.50
2008,06,17,05,52,9.50
2008,06,17,05,53,9.50
2008,06,17,05,54,9.60
2008,06,17,05,55,9.70
2008,06,17,05,56,9.80
2008,06,17,05,57,9.90
2008,06,17,05,58,10.00
2008,06,17,05,59,10.00
2008,06,17,06,00,10.10
2008,06,17,06,01,10.10
2008,06,17,06,02,10.10
2008,06,17,06,03,10.10
2008,06,17,06,04,10.10
2008,06,17,06,05,10.10
2008,06,17,06,06,10.10
2008,06,17,06,07,10.20
2008,06,17,06,08,10.20
2008,06,17,06,09,10.20
2008,06,17,06,10,10.20
2008,06,17,06,11,10.20
2008,06,17,06,12,10.20
2008,06,17,06,13,10.20
2008,06,17,06,14,10.20
2008,06,17,06,15,10.20
2008,06,17,06,16,10.20
2008,06,17,06,17,10.30
2008,06,17,06,18,10.30
2008,06,17,06,19,10.40
2008,06,17,06,20,10.40
2008,06,17,06,21,10.40
2008,06,17,06,22,10.50
2008,06,17,06,23,10.50
2008,06,17,06,24,10.50
2008,06,17,06,25,10.60
2008,06,17,06,26,10.60
2008,06,17,06,27,10.60
2008,06,17,06,28,10.70
2008,06,17,06,29,10.70
2008,06,17,06,30,10.70
2008,06,17,06,31,10.70
2008,06,17,06,32,10.70
2008,06,17,06,33,10.80
2008,06,17,06,34,10.80
2008,06,17,06,35,10.80
2008,06,17,06,36,10.90
2008,06,17,06,37,10.90
2008,06,17,06,38,10.90
2008,06,17,06,39,10.90
2008,06,17,06,40,11.00
2008,06,17,06,41,11.00
2008,06,17,06,42,11.00
2008,06,17,06,43,11.10
2008,06,17,06,44,11.10
2008,06,17,06,45,11.10
2008,06,17,06,46,11.20
2008,06,17,06,47,11.20
2008,06,17,06,48,11.20
2008,06,17,06,49,11.30
2008,06,17,06,50,11.30
2008,06,17,06,51,11.30
2008,06,17,06,52,11.40
2008,06,17,06,53,11.50
2008,06,17,06,54,11.60
2008,06,17,06,55,11.60
2008,06,17,06,56,11.70
2008,06,17,06,57,11.80
2008,06,17,06,58,11.80
2008,06,17,06,59,11.90
2008,06,17,07,00,12.00
2008,06,17,07,01,12.10
2008,06,17,07,02,12.10
2008,06,17,07,03,12.20
2008,06,17,07,04,12.20
2008,06,17,07,05,12.30
2008,06,17,07,06,12.40
2008,06,17,07,07,12.50
2008,06,17,07,08,12.50
2008,06,17,07,09,12.60
2008,06,17,07,10,12.70
2008,06,17,07,11,12.80
2008,06,17,07,12,13.00
2008,06,17,07,13,13.10
2008,06,17,07,14,13.20
2008,06,17,07,15,13.30
2008,06,17,07,16,13.30
2008,06,17,07,17,13.30
2008,06,17,07,18,13.40
2008,06,17,07,19,13.40
2008,06,17,07,20,13.40
2008,06,17,07,21,13.50
2008,06,17,07,22,13.50
2008,06,17,07,23,13.40
2008,06,17,07,24,13.40
2008,06,17,07,25,13.40
2008,06,17,07,26,13.40
2008,06,17,07,27,13.40
2008,06,17,07,28,13.40
2008,06,17,07,29,13.40
2008,06,17,07,30,13.40
2008,06,17,07,31,13.40
2008,06,17,07,32,13.40
2008,06,17,07,33,13.40
2008,06,17,07,34,13.40
2008,06,17,07,35,13.40
2008,06,17,07,36,13.40
2008,06,17,07,37,13.30
2008,06,17,07,38,13.30
2008,06,17,07,39,13.30
2008,06,17,07,40,13.30
2008,06,17,07,41,13.30
2008,06,17,07,42,13.30
2008,06,17,07,43,13.30
2008,06,17,07,44,13.30
2008,06,17,07,45,13.30
2008,06,17,07,46,13.30
2008,06,17,07,47,13.30
2008,06,17,07,48,13.30
2008,06,17,07,49,13.30
2008,06,17,07,50,13.30
2008,06,17,07,51,13.30
2008,06,17,07,52,13.30
2008,06,17,07,53,13.30
2008,06,17,07,54,13.30
2008,06,17,07,55,13.30
2008,06,17,07,56,13.30
2008,06,17,07,57,13.30
2008,06,17,07,58,13.30
2008,06,17,07,59,13.20
2008,06,17,08,00,13.20
2008,06,17,08,01,13.20
2008,06,17,08,02,13.20
2008,06,17,08,03,13.20
2008,06,17,08,04,13.20
2008,06,17,08,05,13.10
2008,06,17,08,06,13.10
2008,06,17,08,07,13.00
2008,06,17,08,08,13.00
2008,06,17,08,09,12.90
2008,06,17,08,10,12.90
2008,06,17,08,11,12.80
2008,06,17,08,12,12.80
2008,06,17,08,13,12.80
2008,06,17,08,14,12.70
2008,06,17,08,15,12.70
2008,06,17,08,16,12.70
2008,06,17,08,17,12.70
2008,06,17,08,18,12.70
2008,06,17,08,19,12.60
2008,06,17,08,20,12.60
2008,06,17,08,21,12.60
2008,06,17,08,22,12.60
2008,06,17,08,23,12.60
2008,06,17,08,24,12.60
2008,06,17,08,25,12.60
2008,06,17,08,26,12.60
2008,06,17,08,27,12.60
2008,06,17,08,28,12.60
2008,06,17,08,29,12.50
2008,06,17,08,30,12.50
2008,06,17,08,31,12.50
2008,06,17,08,32,12.60
2008,06,17,08,33,12.60
2008,06,17,08,34,12.60
2008,06,17,08,35,12.50
2008,06,17,08,36,12.50
2008,06,17,08,37,12.40
2008,06,17,08,38,12.40
2008,06,17,08,39,12.40
2008,06,17,08,40,12.40
2008,06,17,08,41,12.40
2008,06,17,08,42,12.30
2008,06,17,08,43,12.30
2008,06,17,08,44,12.30
2008,06,17,08,45,12.30
2008,06,17,08,46,12.30
2008,06,17,08,47,12.30
2008,06,17,08,48,12.30
2008,06,17,08,49,12.30
2008,06,17,08,50,12.30
2008,06,17,08,51,12.30
2008,06,17,08,52,12.30
2008,06,17,08,53,12.30
2008,06,17,08,54,12.30
2008,06,17,08,55,12.30
2008,06,17,08,56,12.40
2008,06,17,08,57,12.40
2008,06,17,08,58,12.40
2008,06,17,08,59,12.40
2008,06,17,09,00,12.40
2008,06,17,09,01,12.50
2008,06,17,09,02,12.50
2008,06,17,09,03,12.50
2008,06,17,09,04,12.50
2008,06,17,09,05,12.60
2008,06,17,09,06,12.60
2008,06,17,09,07,12.60
2008,06,17,09,08,12.70
2008,06,17,09,09,12.70
2008,06,17,09,10,12.70
2008,06,17,09,11,12.80
2008,06,17,09,12,12.80
2008,06,17,09,13,12.80
2008,06,17,09,14,12.90
2008,06,17,09,15,13.00
2008,06,17,09,16,13.00
2008,06,17,09,17,13.00
2008,06,17,09,18,13.00
2008,06,17,09,19,13.00
2008,06,17,09,20,13.00
2008,06,17,09,21,13.10
2008,06,17,09,22,13.10
2008,06,17,09,23,13.20
2008,06,17,09,24,13.20
2008,06,17,09,25,13.20
2008,06,17,09,26,13.30
2008,06,17,09,27,13.30
2008,06,17,09,28,13.30
2008,06,17,09,29,13.30
2008,06,17,09,30,13.40
2008,06,17,09,31,13.40
2008,06,17,09,32,13.40
2008,06,17,09,33,13.40
2008,06,17,09,34,13.40
2008,06,17,09,35,13.40
2008,06,17,09,36,13.40
2008,06,17,09,37,13.40
2008,06,17,09,38,13.50
2008,06,17,09,39,13.50
2008,06,17,09,40,13.50
2008,06,17,09,41,13.50
2008,06,17,09,42,13.50
2008,06,17,09,43,13.50
2008,06,17,09,44,13.50
2008,06,17,09,45,13.50
2008,06,17,09,46,13.50
2008,06,17,09,47,13.50
2008,06,17,09,48,13.50
2008,06,17,09,49,13.50
2008,06,17,09,50,13.60
2008,06,17,09,51,13.50
2008,06,17,09,52,13.50
2008,06,17,09,53,13.50
2008,06,17,09,54,13.50
2008,06,17,09,55,13.60
2008,06,17,09,56,13.60
2008,06,17,09,57,13.60
2008,06,17,09,58,13.60
2008,06,17,09,59,13.60
2008,06,17,10,00,13.60
2008,06,17,10,01,13.60
2008,06,17,10,02,13.60
2008,06,17,10,03,13.60
2008,06,17,10,04,13.60
2008,06,17,10,05,13.60
2008,06,17,10,06,13.60
2008,06,17,10,07,13.70
2008,06,17,10,08,13.70
2008,06,17,10,09,13.70
2008,06,17,10,10,13.70
2008,06,17,10,11,13.80
2008,06,17,10,12,13.80
2008,06,17,10,13,13.90
2008,06,17,10,14,13.90
2008,06,17,10,15,13.90
2008,06,17,10,16,13.90
2008,06,17,10,17,14.00
2008,06,17,10,18,14.00
2008,06,17,10,19,14.10
2008,06,17,10,20,14.20
2008,06,17,10,21,14.20
2008,06,17,10,22,14.30
2008,06,17,10,23,14.40
2008,06,17,10,24,14.40
2008,06,17,10,25,14.30
2008,06,17,10,26,14.40
2008,06,17,10,27,14.40
2008,06,17,10,28,14.40
2008,06,17,10,29,14.50
2008,06,17,10,30,14.60
2008,06,17,10,31,14.70
2008,06,17,10,32,14.80
2008,06,17,10,33,14.90
2008,06,17,10,34,15.00
2008,06,17,10,35,15.00
2008,06,17,10,36,15.00
2008,06,17,10,37,15.00
2008,06,17,10,38,15.00
2008,06,17,10,39,15.10
2008,06,17,10,40,15.10
2008,06,17,10,41,15.20
2008,06,17,10,42,15.30
2008,06,17,10,43,15.40
2008,06,17,10,44,15.50
2008,06,17,10,45,15.50
2008,06,17,10,46,15.50
2008,06,17,10,47,15.40
2008,06,17,10,48,15.40
2008,06,17,10,49,15.40
2008,06,17,10,50,15.40
2008,06,17,10,51,15.40
2008,06,17,10,52,15.40
2008,06,17,10,53,15.40
2008,06,17,10,54,15.40
2008,06,17,10,55,15.40
2008,06,17,10,56,15.40
2008,06,17,10,57,15.50
2008,06,17,10,58,15.50
2008,06,17,10,59,15.60
2008,06,17,11,00,15.60
2008,06,17,11,01,15.70
2008,06,17,11,02,15.70
2008,06,17,11,03,15.80
2008,06,17,11,04,15.80
2008,06,17,11,05,15.90
2008,06,17,11,06,16.00
2008,06,17,11,07,16.00
2008,06,17,11,08,16.00
2008,06,17,11,09,16.00
2008,06,17,11,10,15.90
2008,06,17,11,11,15.90
2008,06,17,11,12,15.90
2008,06,17,11,13,16.00
2008,06,17,11,14,16.00
2008,06,17,11,15,16.00
2008,06,17,11,16,16.10
2008,06,17,11,17,16.10
2008,06,17,11,18,16.10
2008,06,17,11,19,16.10
2008,06,17,11,20,16.10
2008,06,17,11,21,16.10
2008,06,17,11,22,16.10
2008,06,17,11,23,16.20
2008,06,17,11,24,16.20
2008,06,17,11,25,16.20
2008,06,17,11,26,16.30
2008,06,17,11,27,16.30
2008,06,17,11,28,16.20
2008,06,17,11,29,16.10
2008,06,17,11,30,16.10
2008,06,17,11,31,16.10
2008,06,17,11,32,16.10
2008,06,17,11,33,16.10
2008,06,17,11,34,16.10
2008,06,17,11,35,16.00
2008,06,17,11,36,16.00
2008,06,17,11,37,16.00
2008,06,17,11,38,16.00
2008,06,17,11,39,16.00
2008,06,17,11,40,16.00
2008,06,17,11,41,16.10
2008,06,17,11,42,16.20
2008,06,17,11,43,16.30
2008,06,17,11,44,16.40
2008,06,17,11,45,16.40
2008,06,17,11,46,16.40
2008,06,17,11,47,16.30
2008,06,17,11,48,16.20
2008,06,17,11,49,16.20
2008,06,17,11,50,16.10
2008,06,17,11,51,16.10
2008,06,17,11,52,16.10
2008,06,17,11,53,16.20
2008,06,17,11,54,16.20
2008,06,17,11,55,16.20
2008,06,17,11,56,16.10
2008,06,17,11,57,16.10
2008,06,17,11,58,16.10
2008,06,17,11,59,16.00
2008,06,17,12,00,16.00
2008,06,17,12,01,15.90
2008,06,17,12,02,15.90
2008,06,17,12,03,15.80
2008,06,17,12,04,15.90
2008,06,17,12,05,16.00
2008,06,17,12,06,15.90
2008,06,17,12,07,15.90
2008,06,17,12,08,16.00
2008,06,17,12,09,16.10
2008,06,17,12,10,16.20
2008,06,17,12,11,16.30
2008,06,17,12,12,16.40
2008,06,17,12,13,16.50
2008,06,17,12,14,16.60
2008,06,17,12,15,16.70
2008,06,17,12,16,16.60
2008,06,17,12,17,16.60
2008,06,17,12,18,16.60
2008,06,17,12,19,16.60
2008,06,17,12,20,16.50
2008,06,17,12,21,16.50
2008,06,17,12,22,16.70
2008,06,17,12,23,16.70
2008,06,17,12,24,16.70
2008,06,17,12,25,16.80
2008,06,17,12,26,16.80
2008,06,17,12,27,16.70
2008,06,17,12,28,16.60
2008,06,17,12,29,16.70
2008,06,17,12,30,16.80
2008,06,17,12,31,16.90
2008,06,17,12,32,16.80
2008,06,17,12,33,16.80
2008,06,17,12,34,16.60
2008,06,17,12,35,16.40
2008,06,17,12,36,16.30
2008,06,17,12,37,16.30
2008,06,17,12,38,16.20
2008,06,17,12,39,16.20
2008,06,17,12,40,16.20
2008,06,17,12,41,16.10
2008,06,17,12,42,16.10
2008,06,17,12,43,16.00
2008,06,17,12,44,15.90
2008,06,17,12,45,15.80
2008,06,17,12,46,15.80
2008,06,17,12,47,15.60
2008,06,17,12,48,15.60
2008,06,17,12,49,15.60
2008,06,17,12,50,15.60
2008,06,17,12,51,15.70
2008,06,17,12,52,15.80
2008,06,17,12,53,15.80
2008,06,17,12,54,15.90
2008,06,17,12,55,15.80
2008,06,17,12,56,15.80
2008,06,17,12,57,15.70
2008,06,17,12,58,15.70
2008,06,17,12,59,15.70
2008,06,17,13,00,15.70
2008,06,17,13,01,15.70
2008,06,17,13,02,15.70
2008,06,17,13,03,15.70
2008,06,17,13,04,15.70
2008,06,17,13,05,15.70
2008,06,17,13,06,15.60
2008,06,17,13,07,15.60
2008,06,17,13,08,15.70
2008,06,17,13,09,15.70
2008,06,17,13,10,15.70
2008,06,17,13,11,15.70
2008,06,17,13,12,15.70
2008,06,17,13,13,15.70
2008,06,17,13,14,15.80
2008,06,17,13,15,15.70
2008,06,17,13,16,15.70
2008,06,17,13,17,15.70
2008,06,17,13,18,15.60
2008,06,17,13,19,15.60
2008,06,17,13,20,15.60
2008,06,17,13,21,15.50
2008,06,17,13,22,15.50
2008,06,17,13,23,15.40
2008,06,17,13,24,15.40
2008,06,17,13,25,15.30
2008,06,17,13,26,15.20
2008,06,17,13,27,15.00
2008,06,17,13,28,15.00
2008,06,17,13,29,15.00
2008,06,17,13,30,15.00
2008,06,17,13,31,15.00
2008,06,17,13,32,15.00
2008,06,17,13,33,14.90
2008,06,17,13,34,14.90
2008,06,17,13,35,14.90
2008,06,17,13,36,14.90
2008,06,17,13,37,14.90
2008,06,17,13,38,14.90
2008,06,17,13,39,14.80
2008,06,17,13,40,14.80
2008,06,17,13,41,14.80
2008,06,17,13,42,14.80
2008,06,17,13,43,14.70
2008,06,17,13,44,14.70
2008,06,17,13,45,14.70
2008,06,17,13,46,14.70
2008,06,17,13,47,14.70
2008,06,17,13,48,14.80
2008,06,17,13,49,14.80
2008,06,17,13,50,14.80
2008,06,17,13,51,14.90
2008,06,17,13,52,15.00
2008,06,17,13,53,15.00
2008,06,17,13,54,15.00
2008,06,17,13,55,15.00
2008,06,17,13,56,15.20
2008,06,17,13,57,15.30
2008,06,17,13,58,15.30
2008,06,17,13,59,15.40
2008,06,17,14,00,15.30
2008,06,17,14,01,15.20
2008,06,17,14,02,15.20
2008,06,17,14,03,15.10
2008,06,17,14,04,15.20
2008,06,17,14,05,15.20
2008,06,17,14,06,15.20
2008,06,17,14,07,15.30
2008,06,17,14,08,15.30
2008,06,17,14,09,15.30
2008,06,17,14,10,15.20
2008,06,17,14,11,15.30
2008,06,17,14,12,15.40
2008,06,17,14,13,15.50
2008,06,17,14,14,15.60
2008,06,17,14,15,15.60
2008,06,17,14,16,15.60
2008,06,17,14,17,15.70
2008,06,17,14,18,15.70
2008,06,17,14,19,15.70
2008,06,17,14,20,15.80
2008,06,17,14,21,16.00
2008,06,17,14,22,16.20
2008,06,17,14,23,16.30
2008,06,17,14,24,16.30
2008,06,17,14,25,16.40
2008,06,17,14,26,16.40
2008,06,17,14,27,16.40
2008,06,17,14,28,16.40
2008,06,17,14,29,16.30
2008,06,17,14,30,16.30
2008,06,17,14,31,16.30
2008,06,17,14,32,16.30
2008,06,17,14,33,16.30
2008,06,17,14,34,16.30
2008,06,17,14,35,16.30
2008,06,17,14,36,16.30
2008,06,17,14,37,16.30
2008,06,17,14,38,16.30
2008,06,17,14,39,16.20
2008,06,17,14,40,16.20
2008,06,17,14,41,16.10
2008,06,17,14,42,16.10
2008,06,17,14,43,16.20
2008,06,17,14,44,16.20
2008,06,17,14,45,16.20
2008,06,17,14,46,16.30
2008,06,17,14,47,16.20
2008,06,17,14,48,16.20
2008,06,17,14,49,16.10
2008,06,17,14,50,16.00
2008,06,17,14,51,15.90
2008,06,17,14,52,15.80
2008,06,17,14,53,15.80
2008,06,17,14,54,15.70
2008,06,17,14,55,15.70
2008,06,17,14,56,15.70
2008,06,17,14,57,15.70
2008,06,17,14,58,15.70
2008,06,17,14,59,15.70
2008,06,17,15,00,15.70
2008,06,17,15,01,15.70
2008,06,17,15,02,15.70
2008,06,17,15,03,15.80
2008,06,17,15,04,15.80
2008,06,17,15,05,15.70
2008,06,17,15,06,15.70
2008,06,17,15,07,15.60
2008,06,17,15,08,15.60
2008,06,17,15,09,15.50
2008,06,17,15,10,15.40
2008,06,17,15,11,15.40
2008,06,17,15,12,15.40
2008,06,17,15,13,15.50
2008,06,17,15,14,15.60
2008,06,17,15,15,15.60
2008,06,17,15,16,15.60
2008,06,17,15,17,15.70
2008,06,17,15,18,15.70
2008,06,17,15,19,15.80
2008,06,17,15,20,15.80
2008,06,17,15,21,15.80
2008,06,17,15,22,15.80
2008,06,17,15,23,15.80
2008,06,17,15,24,15.70
2008,06,17,15,25,15.60
2008,06,17,15,26,15.60
2008,06,17,15,27,15.50
2008,06,17,15,28,15.40
2008,06,17,15,29,15.40
2008,06,17,15,30,15.40
2008,06,17,15,31,15.50
2008,06,17,15,32,15.50
2008,06,17,15,33,15.50
2008,06,17,15,34,15.60
2008,06,17,15,35,15.60
2008,06,17,15,36,15.60
2008,06,17,15,37,15.70
2008,06,17,15,38,15.60
2008,06,17,15,39,15.40
2008,06,17,15,40,15.30
2008,06,17,15,41,15.20
2008,06,17,15,42,15.20
2008,06,17,15,43,15.10
2008,06,17,15,44,15.00
2008,06,17,15,45,15.00
2008,06,17,15,46,15.00
2008,06,17,15,47,15.00
2008,06,17,15,48,15.00
2008,06,17,15,49,15.00
2008,06,17,15,50,15.00
2008,06,17,15,51,15.00
2008,06,17,15,52,15.00
2008,06,17,15,53,15.00
2008,06,17,15,54,15.00
2008,06,17,15,55,15.00
2008,06,17,15,56,15.00
2008,06,17,15,57,15.00
2008,06,17,15,58,15.00
2008,06,17,15,59,15.00
2008,06,17,16,00,15.00
2008,06,17,16,01,15.00
2008,06,17,16,02,15.00
2008,06,17,16,03,15.10
2008,06,17,16,04,15.10
2008,06,17,16,05,15.10
2008,06,17,16,06,15.10
2008,06,17,16,07,15.20
2008,06,17,16,08,15.20
2008,06,17,16,09,15.20
2008,06,17,16,10,15.20
2008,06,17,16,11,15.20
2008,06,17,16,12,15.20
2008,06,17,16,13,15.20
2008,06,17,16,14,15.20
2008,06,17,16,15,15.20
2008,06,17,16,16,15.20
2008,06,17,16,17,15.20
2008,06,17,16,18,15.20
2008,06,17,16,19,15.20
2008,06,17,16,20,15.20
2008,06,17,16,21,15.20
2008,06,17,16,22,15.20
2008,06,17,16,23,15.10
2008,06,17,16,24,15.10
2008,06,17,16,25,15.10
2008,06,17,16,26,15.10
2008,06,17,16,27,15.20
2008,06,17,16,28,15.20
2008,06,17,16,29,15.20
2008,06,17,16,30,15.10
2008,06,17,16,31,15.10
2008,06,17,16,32,15.10
2008,06,17,16,33,15.10
2008,06,17,16,34,15.20
2008,06,17,16,35,15.20
2008,06,17,16,36,15.20
2008,06,17,16,37,15.30
2008,06,17,16,38,15.30
2008,06,17,16,39,15.30
2008,06,17,16,40,15.40
2008,06,17,16,41,15.40
2008,06,17,16,42,15.40
2008,06,17,16,43,15.50
2008,06,17,16,44,15.50
2008,06,17,16,45,15.60
2008,06,17,16,46,15.60
2008,06,17,16,47,15.60
2008,06,17,16,48,15.70
2008,06,17,16,49,15.70
2008,06,17,16,50,15.70
2008,06,17,16,51,15.80
2008,06,17,16,52,15.90
2008,06,17,16,53,15.90
2008,06,17,16,54,16.00
2008,06,17,16,55,16.00
2008,06,17,16,56,16.10
2008,06,17,16,57,16.10
2008,06,17,16,58,16.20
2008,06,17,16,59,16.20
2008,06,17,17,00,16.20
2008,06,17,17,01,16.30
2008,06,17,17,02,16.30
2008,06,17,17,03,16.30
2008,06,17,17,04,16.40
2008,06,17,17,05,16.40
2008,06,17,17,06,16.40
2008,06,17,17,07,16.40
2008,06,17,17,08,16.40
2008,06,17,17,09,16.50
2008,06,17,17,10,16.50
2008,06,17,17,11,16.50
2008,06,17,17,12,16.50
2008,06,17,17,13,16.50
2008,06,17,17,14,16.50
2008,06,17,17,15,16.50
2008,06,17,17,16,16.50
2008,06,17,17,17,16.40
2008,06,17,17,18,16.40
2008,06,17,17,19,16.50
2008,06,17,17,20,16.50
2008,06,17,17,21,16.50
2008,06,17,17,22,16.50
2008,06,17,17,23,16.60
2008,06,17,17,24,16.60
2008,06,17,17,25,16.60
2008,06,17,17,26,16.60
2008,06,17,17,27,16.60
2008,06,17,17,28,16.60